Theta_e
314 318 319 319 317 313 317 319 316 318 317 316 316 316 317 316 316 315 325 329 330 332 333 336 336 336 336 341 337 337 337 336 334 332 329 327 328 329 330 333 339 339 338 337 336 333 327 327 323
318 319 319 311 314 315 315 314 318 317 316 315 316 316 316 318 315 322 326 329 330 332 335 333 335 336 338 343 342 340 339 337 335 332 330 329 331 331 330 335 337 338 338 336 336 330 326 324 323
319 318 312 312 310 314 315 314 315 316 315 316 316 315 315 317 318 321 326 329 328 333 334 333 334 335 339 342 341 340 339 337 337 334 331 333 337 336 333 332 336 339 337 335 336 328 324 323 321
318 314 309 312 315 313 314 314 313 316 316 315 314 316 313 315 317 323 327 327 328 331 335 333 333 335 335 339 339 337 337 336 337 334 336 337 337 335 333 335 336 337 335 333 333 330 324 321 316
314 307 312 314 315 314 315 315 315 316 315 315 314 315 312 316 322 321 322 324 326 328 334 334 332 333 335 335 336 336 336 336 334 332 335 337 336 333 332 333 335 334 332 330 330 329 325 319 307
312 307 312 314 315 313 315 314 314 313 311 313 315 313 312 316 319 321 322 324 327 330 334 335 334 332 333 334 335 335 337 337 335 335 336 333 335 335 333 329 332 332 331 329 328 328 323 314 301
313 309 313 314 314 315 316 313 314 313 312 314 313 314 311 315 317 318 323 324 327 329 332 333 335 334 334 335 335 335 337 338 336 335 335 335 335 336 333 332 325 330 330 329 328 325 319 306 300
309 309 315 313 313 315 313 312 313 313 314 310 312 311 312 314 316 318 321 324 326 327 328 330 334 336 335 336 337 337 338 338 337 335 335 334 335 337 335 332 330 325 327 326 327 323 315 302 299
308 309 311 315 314 314 312 313 312 310 311 310 312 312 311 313 316 317 318 320 323 327 329 330 332 335 336 336 336 338 338 337 336 335 335 333 335 337 336 333 331 328 323 324 325 322 311 301 299
310 308 310 313 313 315 314 313 313 312 311 311 310 310 311 312 314 314 312 311 313 317 324 329 332 334 335 336 337 339 339 338 336 334 334 333 333 334 334 333 331 329 323 323 324 321 312 301 299
313 311 312 315 313 314 314 313 312 313 312 311 312 309 307 304 305 305 305 305 305 307 310 316 327 332 334 336 337 338 338 338 334 334 334 334 333 333 333 331 330 328 325 323 321 319 312 304 299
317 315 314 315 314 314 314 313 313 311 312 308 306 305 303 302 302 302 303 303 305 307 308 310 312 324 330 332 333 333 335 338 336 335 334 333 333 332 332 331 330 328 326 324 321 318 313 306 299
315 314 314 313 311 311 312 312 312 311 309 306 304 303 301 301 301 301 301 302 303 305 307 309 311 314 324 330 332 332 333 334 339 338 336 336 335 329 330 330 329 328 327 325 321 318 315 310 302
312 313 311 311 311 311 312 311 312 311 306 304 303 301 300 300 299 299 299 299 301 303 306 309 312 312 318 327 331 333 333 333 332 332 332 331 333 332 327 330 329 328 326 326 324 319 316 313 305
312 312 309 309 310 310 309 312 311 309 305 304 302 300 299 299 298 298 298 298 299 303 307 312 314 316 315 323 329 331 333 334 334 334 334 332 331 330 328 328 329 328 326 325 323 320 317 314 311
312 310 310 312 311 311 311 313 311 309 306 303 301 299 299 298 298 298 298 298 300 303 307 312 318 320 321 324 327 330 331 332 332 333 332 330 330 331 330 329 327 326 328 326 322 320 317 315 312
308 309 311 311 311 311 311 312 310 307 305 302 301 300 299 298 297 297 297 297 299 302 306 310 315 319 322 324 327 328 328 328 327 328 329 329 329 329 329 329 328 326 325 323 321 319 316 315 313
309 311 310 311 313 311 311 309 308 308 308 303 300 299 298 298 297 296 296 296 298 300 302 306 310 314 316 320 321 322 322 320 322 323 324 325 325 325 325 324 323 323 321 319 319 318 316 313 312
310 311 312 310 310 312 310 309 309 308 304 302 300 299 298 297 296 295 295 295 296 297 299 300 304 306 312 315 314 312 310 310 312 314 316 317 319 320 321 319 319 318 318 318 317 316 314 311 308
310 311 310 310 310 309 310 310 309 307 306 303 301 299 298 296 295 294 294 294 295 295 296 297 298 301 304 305 304 304 302 299 300 302 305 308 310 312 313 314 314 312 312 312 311 312 311 309 307
310 310 311 312 311 310 310 309 310 305 303 302 300 299 297 295 294 293 292 293 293 294 295 296 296 297 299 301 302 302 302 301 299 297 298 299 300 301 303 306 306 307 307 306 305 305 305 304 303
313 310 311 312 312 314 309 313 309 307 304 302 300 297 296 295 294 293 292 291 292 292 294 295 296 297 297 297 297 296 293 292 291 292 293 294 295 296 297 298 299 299 300 301 302 302 300 299 299
313 310 310 310 310 310 309 310 308 307 307 303 299 297 295 294 293 292 292 291 291 291 292 292 293 294 293 294 294 292 289 288 288 288 289 288 287 288 289 291 293 294 295 295 296 298 300 300 298
308 309 309 308 308 311 310 310 310 309 309 303 300 298 296 294 293 292 292 291 290 290 289 290 290 289 290 290 289 288 287 286 286 285 285 285 285 285 285 285 285 285 287 289 291 293 294 296 297
308 310 314 315 312 315 309 310 310 308 304 303 301 297 295 294 292 291 291 290 289 289 288 288 287 286 286 286 286 286 285 285 285 284 284 285 285 285 285 285 285 285 285 285 285 285 287 290 292
307 310 315 317 315 313 310 314 313 302 300 300 299 297 295 293 292 291 291 291 289 288 288 288 287 287 286 286 286 285 285 285 285 285 285 284 284 284 284 284 284 284 284 285 285 285 285 285 285
310 311 310 314 299 308 313 311 304 301 300 298 297 296 295 294 293 292 292 291 290 288 288 288 287 287 286 286 285 285 285 285 285 285 284 284 284 283 283 283 283 283 284 283 283 283 283 283 283
310 309 313 310 314 312 314 311 312 304 302 299 298 297 295 294 293 292 292 292 290 289 288 287 287 287 286 285 285 285 285 285 284 284 284 283 283 283 283 283 283 283 283 282 282 282 282 282 282
311 313 313 311 310 312 309 310 305 305 301 300 299 297 295 293 293 292 292 292 291 290 289 287 287 286 285 285 285 285 285 285 285 284 283 283 283 283 283 282 283 282 282 282 281 281 281 280 281
309 311 312 316 313 309 310 313 303 305 301 299 298 296 294 293 292 291 292 291 290 290 289 288 287 286 286 285 285 285 285 285 285 284 283 283 282 282 282 282 281 281 280 280 279 279 279 279 279
Wind_Speed
9 8 5 4 4 5 2 0 1 2 2 1 1 2 2 3 3 3 3 14 2 14 24 26 24 23 21 18 16 15 13 10 9 8 8 7 6 6 5 6 9 7 4 6 5 4 4 4 4
8 5 3 2 5 4 4 4 1 1 2 2 2 2 2 2 2 2 2 12 4 12 20 27 26 24 22 19 17 16 13 11 9 8 8 7 6 5 6 7 6 4 5 2 3 3 2 2 2
4 4 4 4 3 3 4 3 2 4 3 2 2 1 1 2 2 2 3 10 7 12 17 25 26 25 23 20 19 16 14 12 10 9 8 7 6 5 4 6 7 7 3 2 1 2 1 1 2
3 6 4 5 2 2 2 2 3 2 3 4 2 2 3 2 2 2 4 7 8 11 17 21 26 25 24 22 20 18 16 14 11 9 8 8 8 6 5 6 7 7 4 4 3 4 4 4 4
6 3 4 3 2 3 2 2 3 3 1 2 2 4 5 3 1 3 4 5 7 12 16 20 25 27 26 24 22 20 17 16 14 12 12 12 10 8 7 7 6 4 5 3 5 6 6 5 4
4 3 5 1 3 4 3 1 1 2 1 3 2 4 4 5 1 1 3 3 5 9 14 17 22 26 27 26 23 21 19 17 15 13 14 12 12 11 9 5 8 6 6 5 4 8 7 5 3
5 4 3 1 3 4 3 4 2 2 1 2 1 3 4 5 5 5 4 3 5 8 12 15 17 22 25 26 24 23 20 18 16 16 16 14 13 15 13 8 6 9 8 7 6 8 7 5 3
4 4 2 1 1 1 4 5 1 1 2 5 2 2 4 3 5 6 6 6 8 10 13 15 16 19 22 24 24 23 22 20 18 18 17 16 14 18 15 12 7 7 9 8 8 9 7 6 5
3 4 1 2 2 2 4 5 2 3 1 4 3 1 4 9 4 6 6 7 9 12 14 16 18 20 21 22 24 23 22 22 20 18 18 17 16 19 18 15 11 9 9 9 10 10 8 7 7
4 3 6 3 3 2 3 1 3 5 7 2 3 7 10 13 7 6 9 14 15 14 14 16 19 20 21 22 23 23 23 22 20 20 19 18 17 19 19 17 13 11 10 10 11 10 10 8 8
2 4 5 3 4 3 2 2 3 1 6 4 4 9 10 12 16 14 13 13 12 10 9 12 18 22 22 23 24 24 25 24 23 23 22 19 18 20 21 18 16 13 12 11 13 13 12 9 9
0 4 3 2 3 2 3 2 5 5 8 6 4 3 5 8 11 12 12 13 14 11 9 8 11 22 25 24 23 23 23 24 26 24 21 20 19 20 20 19 17 14 14 14 15 15 14 12 11
2 3 3 6 7 5 2 6 5 9 7 5 9 11 9 9 11 12 12 13 14 14 13 10 8 12 23 25 23 21 19 18 19 22 24 22 21 21 21 21 19 16 15 15 17 17 16 14 14
2 3 6 7 7 4 4 2 2 3 8 8 9 9 8 10 15 16 21 19 18 15 15 13 10 8 16 23 22 20 17 15 15 15 15 19 22 21 20 22 20 19 18 17 16 18 17 16 16
1 5 7 7 2 5 6 0 7 5 8 7 8 7 8 10 16 17 16 17 19 18 17 15 12 9 5 14 17 17 16 15 12 12 12 13 16 19 19 19 22 21 20 18 17 18 18 18 18
3 3 4 3 3 1 4 8 6 2 8 7 6 6 7 8 13 16 16 17 18 19 20 18 17 13 8 4 8 8 9 9 9 9 9 11 15 18 18 18 20 19 19 19 20 18 19 19 20
4 3 4 8 3 2 3 6 7 6 7 6 6 6 6 7 14 20 19 18 18 19 20 21 22 23 19 15 12 11 10 7 4 1 2 5 8 11 15 17 17 18 21 20 20 18 18 20 20
5 4 4 6 2 2 3 8 8 6 3 7 7 6 6 7 10 19 21 21 21 21 22 22 22 20 23 24 22 21 20 21 17 15 11 7 5 6 6 9 11 12 13 15 16 16 18 20 19
4 4 5 4 4 1 7 6 12 4 4 6 7 7 7 7 9 19 23 24 25 27 28 28 26 24 18 16 19 22 23 23 22 19 16 14 9 7 6 7 8 8 8 11 13 15 18 19 18
2 1 7 5 4 6 7 8 10 4 2 3 9 6 7 6 7 15 22 27 29 28 29 30 31 28 25 24 18 18 22 27 25 23 21 18 16 14 11 9 8 8 9 10 12 13 15 18 18
4 7 3 6 4 3 4 6 7 3 5 9 7 7 6 7 6 7 16 23 25 29 31 32 31 31 28 22 18 18 18 22 25 26 24 23 21 20 17 14 13 11 9 9 10 12 14 18 17
5 8 8 7 3 5 3 5 5 5 4 4 6 6 6 6 6 7 12 19 22 23 26 29 32 32 30 27 29 31 31 28 25 25 24 26 25 23 20 18 16 15 14 13 12 11 11 13 19
6 2 5 2 2 2 3 2 6 5 3 5 5 6 6 5 6 6 12 16 18 20 23 27 28 29 29 29 29 31 32 29 27 27 27 28 29 30 29 26 22 20 18 15 14 14 13 12 13
4 4 6 4 2 1 9 8 3 4 2 5 5 6 7 7 7 10 11 13 16 18 21 24 27 28 26 27 27 27 29 27 27 27 27 27 27 28 28 27 27 27 27 26 22 16 13 14 14
3 6 2 3 2 6 1 2 7 1 2 6 14 10 7 5 5 6 10 11 13 15 19 21 24 25 24 25 25 25 25 25 26 24 23 23 24 25 25 24 25 25 24 25 24 24 22 18 16
7 8 6 7 3 4 1 6 5 1 2 6 13 11 7 7 7 6 10 11 11 13 15 17 19 21 20 20 21 21 21 21 20 19 17 17 19 20 19 20 20 22 22 22 22 22 22 22 21
5 4 4 5 3 2 4 4 0 2 5 6 7 7 9 8 7 7 13 12 13 13 12 13 15 16 15 16 15 17 16 15 15 14 14 16 17 17 18 19 20 21 22 24 24 25 24 23 23
3 5 3 2 2 4 4 6 5 7 7 7 8 10 7 7 9 8 14 15 13 12 12 11 11 13 13 12 12 13 13 12 11 11 13 15 15 16 19 21 23 24 25 26 26 27 28 28 29
2 2 3 3 4 5 2 7 4 7 9 13 12 9 9 10 10 7 14 15 14 13 12 11 11 11 11 10 10 9 9 10 11 13 14 15 17 19 21 23 25 28 30 31 32 32 32 33 32
2 6 7 6 7 3 2 12 3 3 8 9 9 9 8 8 8 9 17 19 19 17 15 14 13 11 10 8 6 4 4 7 10 13 15 17 19 20 23 25 28 30 31 33 33 34 35 33 34
Wind_Direction
340 335 331 28 54 64 330 35 273 339 336 228 104 112 176 190 157 206 317 180 230 185 182 189 190 190 190 190 191 188 182 179 175 169 164 160 154 149 146 140 142 141 122 92 92 77 67 93 91
346 345 33 77 82 65 283 265 237 261 317 26 67 72 43 268 281 290 180 188 174 185 191 194 193 195 194 194 193 190 188 188 188 183 178 175 168 168 169 157 168 174 139 126 99 41 49 81 98
1 18 76 86 102 155 190 235 268 322 352 2 11 83 166 296 304 249 268 200 208 191 194 198 197 199 197 195 195 197 198 198 197 194 191 181 172 175 184 177 183 166 148 199 84 345 345 335 315
11 20 39 80 123 244 229 220 226 336 348 37 10 12 318 339 306 287 181 192 209 207 201 201 202 204 204 203 204 204 206 207 204 202 193 190 189 200 186 177 188 193 214 259 255 280 286 294 296
43 56 55 83 284 271 254 237 182 88 57 324 13 320 297 343 75 144 182 189 215 205 206 205 207 210 211 212 213 214 215 214 212 205 195 205 215 225 213 207 189 218 251 272 262 268 277 294 291
39 85 57 129 279 282 286 272 108 60 331 320 25 348 272 333 263 182 183 227 208 207 206 212 215 217 218 219 221 220 219 219 216 211 213 219 226 224 230 254 203 218 238 256 270 272 278 292 265
103 78 167 177 300 329 327 348 46 117 333 262 202 333 285 308 259 238 201 215 222 214 215 215 219 221 225 226 226 225 223 223 221 216 221 224 230 227 238 238 251 214 231 246 242 259 277 278 213
101 87 101 246 268 308 333 349 14 83 288 328 163 260 280 288 297 224 226 227 226 223 225 224 221 223 225 227 230 227 225 226 226 219 224 228 234 229 239 247 260 250 237 238 232 258 267 252 208
117 61 180 220 138 286 342 16 301 275 269 341 299 245 284 327 311 241 249 263 265 251 240 233 231 226 225 226 227 228 229 232 232 227 231 235 232 229 235 244 255 261 254 246 243 257 261 231 215
83 109 213 217 188 234 298 254 328 356 335 317 319 313 338 343 348 337 333 316 304 285 269 256 243 238 234 231 231 228 230 230 234 235 238 241 241 238 238 247 251 259 262 254 247 260 259 232 225
158 187 194 238 202 200 230 266 196 244 315 225 307 292 347 32 47 48 38 22 1 332 288 263 251 246 241 237 235 232 232 230 235 235 237 238 244 239 238 240 250 255 255 258 253 261 268 248 240
1 243 232 250 169 314 285 338 296 199 238 62 359 358 57 46 39 30 22 14 8 7 356 323 267 240 241 240 241 241 239 237 230 234 238 239 242 239 237 237 245 255 262 265 263 266 270 257 247
199 293 279 274 279 244 320 262 240 264 266 96 73 54 47 38 30 28 19 12 4 0 359 350 318 258 235 237 239 240 243 238 236 237 238 236 236 247 246 244 247 251 261 269 269 267 267 265 258
200 278 285 285 272 259 216 254 134 316 98 77 65 53 45 37 19 15 14 8 7 1 357 354 347 289 239 231 236 241 241 244 248 256 257 243 244 241 258 247 246 247 259 263 266 268 267 266 263
340 332 327 259 276 223 153 276 230 210 86 76 68 56 43 33 34 24 15 14 10 12 11 9 6 352 245 223 230 237 245 246 252 258 258 253 251 246 256 261 258 259 254 254 256 259 257 260 261
12 47 349 285 163 235 146 262 257 354 117 105 95 67 55 32 25 28 24 24 26 28 31 37 42 48 63 153 204 221 227 238 248 256 262 264 259 254 259 264 262 269 263 259 250 254 256 258 259
4 240 220 313 208 129 156 258 274 93 105 127 120 86 64 37 25 24 25 30 38 41 43 46 53 63 75 90 108 120 122 119 95 79 337 297 287 286 278 277 272 266 262 253 246 251 259 263 264
205 212 237 244 269 155 202 258 285 293 138 152 126 103 70 47 23 23 33 37 45 53 54 54 58 68 77 88 93 97 98 89 83 74 65 52 33 358 332 318 308 299 278 245 246 255 264 266 272
161 187 213 250 257 234 244 245 268 253 100 144 145 111 84 61 35 46 51 52 53 51 54 54 53 54 69 77 78 77 78 79 75 67 65 60 54 40 22 9 352 335 315 296 285 275 272 271 274
216 279 261 287 273 175 271 269 266 4 63 212 136 122 111 95 48 37 47 55 57 59 59 58 57 53 61 70 71 81 81 70 68 64 61 56 52 54 50 43 30 9 344 323 312 292 277 275 279
206 212 224 226 323 291 332 289 249 75 78 83 91 114 105 108 91 51 47 56 57 58 61 64 64 63 63 73 86 86 82 66 55 51 51 50 48 46 46 42 37 29 16 1 341 322 300 283 286
215 202 213 227 141 231 141 276 289 170 115 90 117 122 128 118 95 80 69 65 65 68 72 72 72 73 70 71 73 74 70 65 61 61 60 55 49 46 43 39 34 32 25 13 358 343 328 312 296
235 128 175 204 178 65 286 320 256 116 211 173 164 148 139 132 118 101 91 84 79 77 77 80 79 77 77 76 77 80 79 76 72 67 66 63 58 53 48 45 41 35 27 18 8 356 346 333 316
132 87 46 51 62 292 222 191 256 186 168 139 163 161 163 160 139 116 105 102 95 93 89 89 88 85 85 84 82 81 81 75 68 59 56 52 50 49 45 43 41 40 38 32 23 10 358 348 334
115 97 328 333 344 236 15 140 247 16 24 189 174 169 177 166 144 143 137 123 113 107 100 96 95 92 90 87 84 80 76 72 67 59 50 45 42 36 35 31 29 29 28 24 22 20 19 8 350
181 161 163 217 212 256 269 241 256 306 333 131 152 156 156 175 179 169 160 149 135 120 113 109 103 100 94 89 86 83 75 68 62 54 47 39 39 31 25 23 21 19 17 13 9 5 5 360 356
198 187 171 107 61 22 233 295 291 44 60 97 123 146 182 188 176 182 184 171 157 145 128 119 113 105 97 93 91 82 78 71 60 48 38 31 28 20 14 11 8 6 4 359 353 349 347 345 340
180 162 73 8 239 245 262 274 232 220 197 166 173 200 192 186 195 199 191 185 172 155 142 134 124 118 115 109 99 88 79 68 54 40 29 22 14 7 2 357 354 351 350 347 342 338 334 331 328
129 211 101 156 162 196 239 261 230 211 172 186 201 201 197 201 206 199 193 189 181 171 162 152 146 141 135 125 115 102 77 55 38 23 12 3 357 355 351 347 343 341 340 338 336 333 331 327 322
274 208 169 208 238 250 153 258 15 80 177 180 199 204 210 214 212 199 192 187 183 181 180 178 173 167 161 153 139 109 52 24 14 7 359 351 346 343 341 338 336 334 333 332 331 329 326 323 320